• în Republica Moldova
  • Lista ţărilor
  • Pe 7 zile
  • Temperatura apei
  • Hartă satelitară
  • Meteo pe hartă
  • Widget-uri
  • user-avatar
    Intrare

    Meteo pe oră la Townsville

    Astăzi, 25 Februarie, Sâmbătă

    Timp Temperatura Precipitaţii Vânt Presiune Umiditate
    00:00 +27°C° 0,7 mm 4 m/s 752 mmHg 95%
    01:00 +27°C° 0,7 mm 4 m/s 752 mmHg 96%
    02:00 +26°C° 0,3 mm 4 m/s 752 mmHg 96%
    03:00 +26°C° 0,3 mm 3 m/s 752 mmHg 96%
    04:00 +26°C° 0 mm 3 m/s 751 mmHg 96%
    05:00 +27°C° 0,6 mm 3 m/s 751 mmHg 95%
    06:00 +27°C° 0,6 mm 3 m/s 752 mmHg 95%
    07:00 +27°C° 0,6 mm 3 m/s 752 mmHg 94%
    08:00 +28°C° 0,6 mm 4 m/s 752 mmHg 88%
    09:00 +29°C° 0,6 mm 4 m/s 752 mmHg 81%
    10:00 +32°C° 0 mm 4 m/s 752 mmHg 72%
    11:00 +33°C° 0,3 mm 4 m/s 752 mmHg 67%
    12:00 +34°C° 0,3 mm 4 m/s 751 mmHg 63%
    13:00 +35°C° 0,3 mm 5 m/s 751 mmHg 58%
    14:00 +34°C° 0,6 mm 5 m/s 750 mmHg 61%
    15:00 +33°C° 0,6 mm 5 m/s 750 mmHg 64%
    16:00 +32°C° 0 mm 5 m/s 750 mmHg 72%
    17:00 +30°C° 0,3 mm 5 m/s 750 mmHg 77%
    18:00 +28°C° 0,3 mm 4 m/s 750 mmHg 83%
    19:00 +27°C° 0,3 mm 4 m/s 751 mmHg 88%
    20:00 +27°C° 0 mm 4 m/s 751 mmHg 88%
    21:00 +26°C° 0 mm 4 m/s 751 mmHg 89%
    22:00 +26°C° 0 mm 4 m/s 751 mmHg 90%
    23:00 +26°C° 0 mm 4 m/s 751 mmHg 91%

    Mâine, 26 Februarie, Duminică

    Timp Temperatura Precipitaţii Vânt Presiune Umiditate
    00:00 +26°C° 0 mm 4 m/s 751 mmHg 92%
    01:00 +25°C° 0 mm 4 m/s 751 mmHg 93%
    02:00 +25°C° 0,1 mm 3 m/s 751 mmHg 93%
    03:00 +25°C° 0,1 mm 3 m/s 750 mmHg 94%
    04:00 +25°C° 0,1 mm 3 m/s 750 mmHg 94%
    05:00 +25°C° 0,3 mm 3 m/s 751 mmHg 94%
    06:00 +25°C° 0,3 mm 4 m/s 751 mmHg 94%
    07:00 +26°C° 0,3 mm 4 m/s 751 mmHg 93%
    08:00 +27°C° 0,1 mm 4 m/s 751 mmHg 84%
    09:00 +29°C° 0,1 mm 4 m/s 751 mmHg 75%
    10:00 +30°C° 0,1 mm 5 m/s 751 mmHg 66%
    11:00 +33°C° 0 mm 5 m/s 751 mmHg 60%
    12:00 +34°C° 0 mm 5 m/s 751 mmHg 53%
    13:00 +35°C° 0 mm 6 m/s 750 mmHg 46%
    14:00 +35°C° 0,1 mm 6 m/s 750 mmHg 50%
    15:00 +34°C° 0,1 mm 6 m/s 750 mmHg 53%
    16:00 +34°C° 0,1 mm 6 m/s 750 mmHg 56%
    17:00 +32°C° 0,2 mm 6 m/s 750 mmHg 66%
    18:00 +29°C° 0,2 mm 6 m/s 750 mmHg 76%
    19:00 +27°C° 0,2 mm 5 m/s 751 mmHg 85%
    20:00 +27°C° 0,2 mm 5 m/s 751 mmHg 86%
    21:00 +26°C° 0,2 mm 5 m/s 752 mmHg 88%
    22:00 +26°C° 0,2 mm 5 m/s 752 mmHg 89%
    23:00 +25°C° 0 mm 5 m/s 752 mmHg 90%

    Poimâine, 27 Februarie, Luni

    Timp Temperatura Precipitaţii Vânt Presiune Umiditate
    00:00 +25°C° 0 mm 5 m/s 752 mmHg 92%
    01:00 +23°C° 0 mm 5 m/s 752 mmHg 93%
    02:00 +23°C° 0 mm 4 m/s 751 mmHg 94%
    03:00 +23°C° 0 mm 4 m/s 751 mmHg 95%
    04:00 +22°C° 0 mm 4 m/s 751 mmHg 96%
    05:00 +23°C° 0 mm 4 m/s 751 mmHg 95%
    06:00 +23°C° 0 mm 4 m/s 752 mmHg 94%
    07:00 +23°C° 0 mm 4 m/s 752 mmHg 93%
    08:00 +26°C° 0 mm 4 m/s 752 mmHg 83%
    09:00 +28°C° 0 mm 5 m/s 753 mmHg 73%
    10:00 +32°C° 0 mm 5 m/s 753 mmHg 63%
    11:00 +32°C° 0 mm 5 m/s 752 mmHg 60%
    12:00 +33°C° 0 mm 5 m/s 752 mmHg 56%
    13:00 +34°C° 0 mm 5 m/s 751 mmHg 53%
    14:00 +34°C° 0,1 mm 5 m/s 751 mmHg 55%
    15:00 +33°C° 0,1 mm 6 m/s 750 mmHg 57%
    16:00 +33°C° 0,1 mm 6 m/s 750 mmHg 59%
    17:00 +30°C° 0,3 mm 6 m/s 750 mmHg 68%
    18:00 +28°C° 0,3 mm 6 m/s 751 mmHg 76%
    19:00 +27°C° 0,3 mm 5 m/s 751 mmHg 85%
    20:00 +26°C° 0,5 mm 5 m/s 752 mmHg 87%
    21:00 +26°C° 0,5 mm 5 m/s 752 mmHg 88%
    22:00 +26°C° 0,5 mm 6 m/s 753 mmHg 90%
    23:00 +25°C° 0,4 mm 5 m/s 753 mmHg 92%

    28 Februarie, Marţi

    Timp Temperatura Precipitaţii Vânt Presiune Umiditate
    00:00 +25°C° 0,4 mm 5 m/s 753 mmHg 93%
    01:00 +23°C° 0,4 mm 5 m/s 752 mmHg 95%
    02:00 +23°C° 0,3 mm 4 m/s 752 mmHg 96%
    03:00 +23°C° 0,3 mm 4 m/s 752 mmHg 96%
    04:00 +22°C° 0,3 mm 4 m/s 752 mmHg 97%
    05:00 +22°C° 0 mm 4 m/s 752 mmHg 96%
    06:00 +23°C° 0 mm 4 m/s 752 mmHg 96%
    07:00 +23°C° 0 mm 4 m/s 753 mmHg 96%
    08:00 +26°C° 0 mm 5 m/s 753 mmHg 85%
    09:00 +28°C° 0 mm 5 m/s 753 mmHg 73%
    10:00 +30°C° 0 mm 5 m/s 753 mmHg 62%
    11:00 +33°C° 0 mm 5 m/s 753 mmHg 57%
    12:00 +34°C° 0 mm 5 m/s 752 mmHg 51%
    13:00 +35°C° 0 mm 5 m/s 752 mmHg 45%
    14:00 +35°C° 0,1 mm 5 m/s 751 mmHg 49%
    15:00 +34°C° 0,1 mm 6 m/s 751 mmHg 52%
    16:00 +34°C° 0,1 mm 6 m/s 750 mmHg 55%
    17:00 +32°C° 0,2 mm 6 m/s 750 mmHg 64%
    18:00 +29°C° 0,2 mm 5 m/s 751 mmHg 73%
    19:00 +27°C° 0,2 mm 5 m/s 751 mmHg 83%
    20:00 +27°C° 0,9 mm 5 m/s 752 mmHg 86%
    21:00 +26°C° 0,9 mm 5 m/s 752 mmHg 89%
    22:00 +26°C° 0,9 mm 4 m/s 753 mmHg 92%
    23:00 +25°C° 0,9 mm 4 m/s 752 mmHg 94%

    1 Martie, Miercuri

    Timp Temperatura Precipitaţii Vânt Presiune Umiditate
    00:00 +25°C° 0,9 mm 4 m/s 752 mmHg 95%
    01:00 +25°C° 0,9 mm 4 m/s 752 mmHg 96%
    02:00 +23°C° 0 mm 4 m/s 752 mmHg 96%
    03:00 +23°C° 0 mm 4 m/s 751 mmHg 97%
    04:00 +24°C° 0 mm 3 m/s 751 mmHg 97%
    05:00 +23°C° 0 mm 4 m/s 752 mmHg 97%
    06:00 +23°C° 0 mm 4 m/s 752 mmHg 96%
    07:00 +25°C° 0 mm 4 m/s 753 mmHg 96%
    08:00 +27°C° 0 mm 4 m/s 753 mmHg 85%
    09:00 +29°C° 0 mm 4 m/s 753 mmHg 74%
    10:00 +32°C° 0 mm 5 m/s 753 mmHg 63%
    11:00 +33°C° 0 mm 5 m/s 752 mmHg 56%
    12:00 +34°C° 0 mm 5 m/s 752 mmHg 50%
    13:00 +36°C° 0 mm 5 m/s 751 mmHg 43%
    14:00 +35°C° 0 mm 5 m/s 750 mmHg 47%
    15:00 +35°C° 0 mm 5 m/s 750 mmHg 50%
    16:00 +34°C° 0 mm 5 m/s 749 mmHg 54%
    17:00 +32°C° 0,3 mm 5 m/s 750 mmHg 64%
    18:00 +29°C° 0,3 mm 5 m/s 750 mmHg 75%
    19:00 +27°C° 0,3 mm 5 m/s 751 mmHg 85%
    20:00 +27°C° 0,8 mm 5 m/s 751 mmHg 88%
    21:00 +26°C° 0,8 mm 4 m/s 751 mmHg 91%
    22:00 +26°C° 0,8 mm 4 m/s 752 mmHg 93%
    23:00 +26°C° 0,9 mm 4 m/s 751 mmHg 94%

    2 Martie, Joi

    Timp Temperatura Precipitaţii Vânt Presiune Umiditate
    00:00 +25°C° 0,9 mm 4 m/s 751 mmHg 96%
    01:00 +25°C° 0,9 mm 4 m/s 751 mmHg 97%
    02:00 +25°C° 0,3 mm 3 m/s 751 mmHg 97%
    03:00 +24°C° 0,3 mm 3 m/s 751 mmHg 98%
    04:00 +24°C° 0,3 mm 3 m/s 750 mmHg 98%
    05:00 +25°C° 0,3 mm 3 m/s 751 mmHg 98%
    06:00 +25°C° 0,3 mm 3 m/s 751 mmHg 97%
    07:00 +25°C° 0,3 mm 4 m/s 752 mmHg 97%
    08:00 +27°C° 0,1 mm 4 m/s 752 mmHg 87%
    09:00 +29°C° 0,1 mm 4 m/s 752 mmHg 77%
    10:00 +32°C° 0,1 mm 4 m/s 752 mmHg 67%
    11:00 +33°C° 0,1 mm 4 m/s 751 mmHg 60%
    12:00 +35°C° 0,1 mm 5 m/s 751 mmHg 53%
    13:00 +36°C° 0,1 mm 5 m/s 750 mmHg 46%
    14:00 +35°C° 0,4 mm 5 m/s 750 mmHg 52%
    15:00 +34°C° 0,4 mm 5 m/s 749 mmHg 57%
    16:00 +34°C° 0,4 mm 6 m/s 749 mmHg 63%
    17:00 +32°C° 0,4 mm 6 m/s 749 mmHg 70%
    18:00 +29°C° 0,4 mm 5 m/s 750 mmHg 78%
    19:00 +28°C° 0,4 mm 5 m/s 750 mmHg 85%
    20:00 +27°C° 0,2 mm 5 m/s 750 mmHg 88%
    21:00 +27°C° 0,2 mm 4 m/s 751 mmHg 91%
    22:00 +27°C° 0,2 mm 4 m/s 751 mmHg 94%
    23:00 +27°C° 0,3 mm 4 m/s 751 mmHg 95%
    Arată mai mult